Regional Weather Roundup
Issued by NWS Spokane, WA

Home | Current Version | Previous Version | Text Only | Print | Product List | Glossary On
Versions: 1 2 3 4 5 6 7 8 9 10 11 12 13 14 15 16 17 18 19 20 21 22 23 24 25 26 27 28 29 30 31 32 33 34 35 36 37 38 39 40 41 42 43 44 45 46 47 48 49 50
000
NZUS01 KOTX 240810
RWROTX

Eastern Washington/Northern Idaho Roundup
National Weather Service, Spokane WA
1200 AM PST TUE JAN 24 2017

Note: "fair" indicated few or no clouds below 12,000 feet with no
significant weather and/or obstructions to visibility.

...Northeast Washington and Northern Idaho Panhandle...

CITY           SKY/WX    TMP DP  RH WIND       PRES   REMARKS
Spokane Intl   FOG       30  29  96 W8        29.87R VSB 3/4 WCI  22
Spokane Downto CLOUDY    34  31  88 W3        29.89R
Coeur d Alene  CLOUDY    30  30 100 N5        29.88R FOG     WCI  25
Deer Park      FOG       31  28  89 W3        29.89R VSB 1/2
Sandpoint      CLEAR     21  21 100 CALM      29.88S
Bonners Ferry  FAIR      23  21  93 CALM      29.88R FOG

...Southeast Washington and southern Idaho Panhandle...

CITY           SKY/WX    TMP DP  RH WIND       PRES   REMARKS
Walla Walla    CLOUDY    30  28  92 S3        29.96R FOG
Pullman/Moscow FOG       28  26  92 W8        29.89S VSB 1/4 WCI  20
Lewiston       CLOUDY    31  27  85 S3        29.93R
Lowell           N/A     33  27  78 SE6       29.91R WCI  28
Grangeville    CLOUDY    25  23  93 N8        29.83R WCI  16

...Columbia Basin...

CITY           SKY/WX    TMP DP  RH WIND       PRES   REMARKS
Ephrata        CLEAR     22  19  89 CALM      29.93R FOG
Moses Lake     CLOUDY    30  28  92 CALM      29.95R
Pasco          CLOUDY    34  32  92 SW5       30.00S WCI  30
Richland       CLOUDY    35  32  89 SW7       30.01S WCI  29
Hermiston      FOG       32  32 100 S3        30.00R VSB 3/4
Pendleton      CLOUDY    30  30 100 CALM      29.94F

...East Slopes Cascades...

CITY           SKY/WX    TMP DP  RH WIND       PRES   REMARKS
The Dalles     CLOUDY    34  32  92 SE6       30.03R WCI  29
Yakima         FOG       25  23  92 W6        29.98S VSB 1/2 WCI  18
Ellensburg     FOG       25  23  92 CALM      29.94R VSB 1/4
Wenatchee      CLEAR     25  25 100 W9        29.94R WCI  15
Omak           FOG       33  30  88 N5        29.94R VSB 3/4 WCI  29
Sunnyside      CLOUDY    30  28  94 CALM      30.00R

...Southern British Columbia...

CITY           SKY/WX    TMP DP  RH WIND       PRES   REMARKS
Penticton      CLOUDY    32  32 100 VRB2      29.95R FOG
Cranbrook      CLOUDY    19  18  93 SW5       29.86R WCI  13
Osoyoos          N/A     34  32  93 CALM        N/A
Creston          N/A     30  25  80 NE6         N/A  WCI  24

...Western Montana...

CITY           SKY/WX    TMP DP  RH WIND       PRES   REMARKS
Kalispell      MOSUNNY   13  10  88 NW5       29.84R WCI   5
Missoula       MOCLDY    26  19  74 E6        29.83R WCI  19

...Neighboring Cities...

CITY           SKY/WX    TMP DP  RH WIND       PRES   REMARKS
Seattle        PTCLDY    36  32  85 E6        30.01R
Portland       CLEAR     34  32  92 NE3       30.01R
Boise          CLOUDY    28  24  85 W13       29.69F WCI  17
Great Falls    CLOUDY    17  14  88 SW5       29.85S WCI  10
Calgary        MOCLDY    21  19  93 CALM      29.81S FOG



USA.gov is the U.S. government's official web portal to all federal, state and local government web resources and services.